ASIASAT 9

Last updated on Wed Sep 17 2025 00:02:49 GMT+0000 (Coordinated Universal Time)

1 42942U 17057A 25259.60761977 -.00000379 00000+0 00000+0 0 9995 2 42942 0.0112 152.8417 0001984 22.5611 161.2511 1.00270792 29112
UTC large
Height (km)
Speed (km/s)
/
Latitude / Longitude
Inclination (degrees)
Orbital Period (minutes)
Azimuth
Elevation
Range (km)
Doppler Factor

Next 0 passes for location: London (51.5072 / 0.1276)

Sorry there are no passes over London.